Location: Newark
(13.0000°N, 151.6000°E)
Time: 12:07:55
(UTC+00:00)

Hubble Space Telescope - Pass Details

Date: 08 April 2020
Orbit: 536 x 540 km, 28.5° (Epoch: 01 June)

Event Time Altitude Azimuth Distance (km) Brightness Sun altitude
Rises 09:31:32 0° 295° (WNW) 2,661 5.7 -21.4°
Reaches altitude 10° 09:35:20 10° 331° (NNW) 1,771 4.0 -22.3°
Maximum altitude 09:36:38 11° 350° (N) 1,689 3.6 -22.6°
Drops below altitude 10° 09:37:57 10° 9° (N) 1,771 3.5 -22.9°
Enters shadow 09:38:31 - 16° (NNE) 1,850 3.5 -23.0°
